Location: B�rglen
(46.9994°N, 8.4843°E)
Time: 08:05:58
(UTC+00:00)

Daily predictions for brighter satellites

Satellite Brightness Start Highest point End
(mag) Time Altitude Azimuth Time Altitude Azimuth Time Altitude Azimuth
ATLAS 2AS CENTAUR R/B 4.3 16:41:30 10° W 16:48:14 29° NNW 16:54:46 10° NE
CZ-4B R/B 3.3 16:44:59 10° SSE 16:50:34 81° ENE 16:56:16 10° NNW
CORIOLIS 4.2 16:46:42 10° SSE 16:52:05 81° ENE 16:57:29 10° NNW
TELKOM 3 3.6 16:50:29 10° WNW 16:52:30 35° N 16:54:40 10° ENE
Cosmos 1340 3.8 16:52:07 10° SE 16:55:06 23° E 16:58:05 10° NE
COSMO-SKYMED 1 3.5 16:51:54 10° NE 16:55:41 28° E 16:59:26 10° SSE
Okean 1-7 Rocket 3.6 16:51:37 10° S 16:56:10 74° E 17:00:44 10° NNE
Cosmos 44 3.4 16:51:57 10° SSW 16:56:41 63° ESE 17:01:46 10° NE
Cosmos-2242 4.4 16:53:49 10° NNE 16:56:42 17° ENE 16:59:35 10° ESE
YAOGAN 6 4.5 16:53:22 10° SSW 16:56:42 36° W 17:00:06 10° NNW
Landsat 5 3.5 16:53:41 10° N 16:57:33 75° WNW 17:01:22 10° SSW
CZ-2C R/B 3.7 16:55:23 10° SE 17:00:29 40° ENE 17:05:48 10° N
ISS -3.0 16:59:45 10° W 17:03:01 44° NNW 17:06:15 10° ENE
Iridium 4 Rocket 4.3 16:58:52 10° NNE 17:03:32 29° ENE 17:07:52 10° SE
Cosmos 1455 2.1 17:00:29 10° N 17:04:20 74° E 17:08:10 10° SSE
ARGOS 4.3 17:03:42 10° ESE 17:07:40 21° ENE 17:11:39 10° NNE
Cosmos 2263 Rocket 4.2 17:04:36 10° W 17:08:54 22° NW 17:13:13 10° N
USA 234 4.1 17:03:39 10° ENE 17:09:36 39° N 17:15:34 10° WNW
Cosmos 2026 Rocket 4.5 17:05:37 10° SSE 17:11:12 38° E 17:16:52 10° NNE
X-37B 1.0 17:08:32 10° W 17:11:41 61° S 17:14:46 10° ESE
Cosmos 1689 Rocket 4.0 17:12:02 12° E 17:12:06 12° E 17:13:15 10° ESE
H-2A R/B 2.2 17:10:34 10° NNE 17:14:58 78° WNW 17:19:15 10° SSW
CZ-2C R/B 4.3 17:13:02 10° NE 17:15:56 14° E 17:18:50 10° ESE
CZ-2D R/B 3.5 17:12:30 10° SE 17:16:11 47° ENE 17:19:52 10° N
Cosmos 1602 Rocket 3.8 17:12:20 10° SSE 17:16:29 47° E 17:20:43 10° NNE
NOSS 2-1 (E) 2.9 17:17:38 10° SSW 17:20:56 66° SE 17:23:58 13° NE
Cosmos 405 3.6 17:18:28 10° N 17:21:45 34° ENE 17:24:58 10° SE
SJ 16-02 2.2 17:17:39 10° SW 17:21:57 52° WNW 17:26:16 10° NNE
YAOGAN 1 3.3 17:18:46 10° SE 17:22:36 31° ENE 17:26:26 10° N
Helios 1A Rocket 3.9 17:23:58 10° ESE 17:27:27 27° ENE 17:30:57 10° N
CSL-04 DEB 4.3 17:24:39 10° NNE 17:28:49 79° ESE 17:32:49 10° SSW
Cosmos 1898 Rocket 3.5 17:24:51 10° SSW 17:30:04 73° ESE 17:35:18 10° NNE
Cosmos 1825 Rocket 4.4 17:28:13 10° SSE 17:31:58 28° E 17:35:46 10° NNE
Cosmos 1939 Rocket 3.1 17:28:00 10° S 17:32:05 74° WSW 17:36:08 10° NNW
Okean O Rocket 2.9 17:29:23 10° S 17:33:36 44° W 17:37:51 10° NNW
CZ-4C R/B 4.2 17:30:05 10° NW 17:34:15 19° N 17:38:56 10° NE
Cosmos 1680 Rocket 3.9 17:29:06 10° NNW 17:34:18 67° WSW 17:39:27 10° S
Cosmos 1812 Rocket 3.4 17:30:38 10° N 17:35:02 73° E 17:39:22 10° SSE
Meteor 1-21 Rocket 4.3 17:30:03 10° SSW 17:35:35 81° WNW 17:41:13 10° N
Feng Yun 1-1 Rocket 4.3 17:32:53 10° SSE 17:38:23 88° WSW 17:44:03 10° NNW
Cosmos 2195 Rocket 4.5 17:32:10 10° S 17:38:26 71° E 17:44:46 10° NNE
Cosmos 1833 Rocket 2.7 17:36:39 10° NNW 17:42:14 61° ENE 17:47:47 10° SE
Cosmos 2344 4.3 17:33:03 10° NW 17:42:14 74° NE 17:55:03 10° SE
Aureole 3 4.4 17:39:37 10° NNW 17:42:31 35° W 17:45:16 10° SSW
Okean-O 2.7 17:39:09 10° SSE 17:43:26 52° ENE 17:47:46 10° N
SKYMED 2 3.5 17:39:32 10° NNE 17:43:55 87° E 17:48:16 10° SSW
Cosmos 1428 Rocket 4.5 17:41:05 10° S 17:47:19 69° E 17:53:36 10° NNE
CZ-4B R/B 1.6 17:44:27 10° N 17:47:46 67° WNW 17:50:58 10° SSW
Cosmos 2098 Rocket 4.3 17:44:42 10° S 17:52:00 67° E 17:59:08 10° NNE
Cosmos 1937 Rocket 3.5 17:48:58 10° SSW 17:54:17 85° ESE 17:59:38 10° NNE
MOS 1 Rocket 3.0 17:51:30 10° NNE 17:55:49 88° WNW 18:00:09 10° SSW
COSMOS 2406 3.2 17:50:33 10° NNW 17:56:23 86° ENE 18:02:08 10° SSE
Meteor 1-27 4.3 17:51:19 10° N 17:56:49 52° ENE 18:02:13 10° SSE
Cosmos 1953 Rocket 4.1 17:53:48 10° SSE 17:57:44 34° E 17:58:46 30° ENE
Cosmos 1703 4.1 17:53:58 10° SSW 17:57:44 50° WNW 18:01:33 10° N
H-2A R/B 1.9 17:53:52 10° SSE 17:58:53 70° ENE 18:04:05 10° N
CZ-4 R/B 1.2 17:54:55 10° SSE 17:58:58 84° ENE 18:02:57 10° NNW
Cosmos 1844 Rocket 4.2 17:54:33 10° WSW 17:59:37 33° NW 18:04:42 10° NNE
Cosmos 2082 Rocket 2.4 17:54:16 10° NNW 17:59:50 48° NE 18:03:50 18° SE
Cosmos 1627 Rocket 4.5 17:55:00 10° S 18:01:12 89° W 18:07:34 10° N
NOSS 2-1 (C) 4.3 18:07:05 10° WSW 18:10:10 35° NW 18:11:52 21° N
Cosmos 1092 Rocket 4.4 18:04:51 10° SSW 18:10:58 64° WNW 18:17:05 10° N
USA 290 2.3 18:07:56 10° NNW 18:11:08 75° WSW 18:13:04 22° SSE
Cosmos 2292 Rocket 3.8 18:07:54 10° SSE 18:12:37 42° E 18:12:41 42° E
Meteor 2-19 Rocket 4.4 18:08:13 10° S 18:14:22 84° E 18:20:34 10° N
NOSS 2-1 (D) 4.5 18:13:08 10° WSW 18:16:09 31° NW 18:17:38 22° N
ATLAS 5 CENTAUR R/B 4.1 18:15:40 10° NNW 18:17:41 12° N 18:19:31 11° NNE
USA 229 DEB 4.3 18:11:05 10° NW 18:18:20 65° WSW 18:25:57 10° SSE
USA 229 4.3 18:11:12 10° NW 18:18:26 66° WSW 18:26:04 10° SSE
Cosmos 1346 Rocket 2.6 18:15:29 10° S 18:19:24 88° ESE 18:21:32 26° NNE
CSL-04 Rocket 3.6 18:15:06 10° SSE 18:20:31 72° ENE 18:26:02 10° N
ERS-2 2.7 18:20:15 15° N 18:23:08 57° WNW 18:26:42 10° SSW
HJ-1C 3.9 18:27:14 49° NNW 18:27:14 49° NNW 18:29:48 10° NNW
Cosmos 2278 Rocket 2.2 18:21:08 10° SSW 18:26:49 87° WNW 18:30:40 22° NNE
PSLV R/B 4.3 18:23:14 10° N 18:27:26 65° WNW 18:31:36 10° SSW
SL-08 RB Rocket 3.5 18:28:06 46° SE 18:29:16 65° ENE 18:33:44 10° N
Meteor 2-2 Rocket 4.5 18:24:36 10° N 18:30:24 49° ENE 18:31:49 41° ESE
COSMO-SKYMED 1 4.3 18:27:59 10° N 18:31:50 32° WNW 18:35:41 10° SW
Cosmos-2242 3.9 18:30:24 10° NNW 18:34:34 50° W 18:38:44 10° S
ISS -2.1 18:37:05 10° WNW 18:39:13 29° NW 18:39:13 29° NW
ATLAS 2AS CENTAUR R/B 4.3 18:35:58 10° NW 18:41:50 22° N 18:44:16 19° NNE
Cosmos 1689 Rocket 4.2 18:43:53 26° W 18:43:53 26° W 18:45:46 10° SW
Ariane Rocket 4.4 18:48:50 24° N 18:48:50 24° N 18:51:00 10° N
ARGOS 3.5 18:42:07 10° S 18:47:27 65° WSW 18:52:49 10° NNW
X-37B 2.7 18:45:12 10° W 18:47:04 25° WSW 18:47:04 25° WSW
Cosmos 2266 Rocket 3.8 18:43:56 10° S 18:50:07 68° E 18:56:13 10° NNE
Cosmos 1809 Rocket 4.3 18:45:33 10° S 18:51:38 76° E 18:57:48 10° NNE
USA 234 3.8 18:50:28 37° NE 18:51:45 41° NNE 18:57:48 10° NW
CZ-2C R/B 2.6 18:53:40 26° NNE 18:56:58 89° ESE 19:02:36 10° SSW
USA 281 4.4 19:08:46 26° NNE 19:08:46 26° NNE 19:12:18 10° N
Cosmos 1241 Rocket 4.4 19:00:55 10° SSW 19:07:23 80° ESE 19:07:48 76° ENE
NOSS 2-2 (D) 4.5 19:12:12 10° NW 19:16:48 66° N 19:16:48 66° N
Cosmos 2315 Rocket 4.1 19:12:13 10° N 19:17:23 63° N 19:17:23 63° N
Meteor 2-21 4.5 19:15:56 10° SSW 19:22:01 76° W 19:28:12 10° N
Cosmos 44 Rocket 4.3 19:17:14 10° SW 19:20:30 42° SW 19:20:30 42° SW
Cosmos 883 Rocket 4.5 19:16:29 10° NNW 19:22:41 76° W 19:23:18 69° SW
CZ-4C R/B 4.1 19:19:51 10° NNW 19:24:20 24° NNE 19:24:20 24° NNE
Cosmos 2082 Rocket 3.8 19:38:47 10° NW 19:43:42 30° WSW 19:45:48 24° SW
Cosmos 2278 Rocket 4.4 20:07:43 10° W 20:11:45 19° NW 20:12:34 19° NNW
ATLAS 2AS CENTAUR R/B 4.5 20:28:10 10° NW 20:31:41 25° NNW 20:31:41 25° NNW
